Regional Weather Roundup
Issued by NWS Cleveland, OH

Home | Current Version | Previous Version | Graphics & Text | Print | Product List | Glossary On
Versions: 1 2 3 4 5 6 7 8 9 10 11 12 13 14 15 16 17 18 19 20 21 22 23 24 25 26 27 28 29 30 31 32 33 34 35 36 37 38 39 40 41 42 43 44 45 46 47 48 49 50
000
ASUS41 KCLE 310410
RWRCLE
OHIO REGIONAL WEATHER ROUNDUP
NATIONAL WEATHER SERVICE WILMINGTON, OH
1200 AM EDT TUE MAY 31 2016

NOTE: "FAIR" INDICATES FEW OR NO CLOUDS BELOW 12,000 FEET WITH NO
SIGNIFICANT WEATHER AND/OR OBSTRUCTIONS TO VISIBILITY.

OHZ001>008-015>018-024>027-034-035-043-044-310500-
   NORTHWEST OHIO

CITY           SKY/WX    TMP DP  RH WIND       PRES   REMARKS
DEFIANCE       FAIR      68  56  65 CALM      29.99S
FINDLAY        FAIR      73  51  46 CALM      29.97F
TOLEDO EXPRESS FAIR      65  54  67 CALM      29.98S
TOLEDO EXEC    FAIR      70  53  54 N3        29.99S
LIMA           FAIR      71  54  54 CALM      29.99S
$$

OHZ009>014-019>023-028>033-038-089-310500-
   NORTHEAST OHIO

CITY           SKY/WX    TMP DP  RH WIND       PRES   REMARKS
CLE-HOPKINS    FAIR      70  56  61 CALM      30.00S
CLE-LAKEFRONT  FAIR      73  56  54 S6        29.97S
CUY CO. ARPT   NOT AVBL
LORAIN-ELYRIA  FAIR      65  57  75 CALM      29.99S
ASHTABULA      FAIR      60  59  96 E3        30.00F
AKRON-CANTON   FAIR      68  53  58 E6        30.01S
WOOSTER        FAIR      63  57  81 CALM      30.01S
MANSFIELD      FAIR      68  58  70 CALM      30.01S
YOUNGSTOWN     FAIR      62  54  74 E5        30.01S
$$

OHZ042-051>053-060>062-070>072-077>081-310500-
  SOUTHWEST OHIO

CITY           SKY/WX    TMP DP  RH WIND       PRES   REMARKS
CINC-COVINGTON FAIR      66  58  75 SE3       29.99F
CINC-LUNKEN    FAIR      65  62  90 CALM      29.99S
HAMILTON       FAIR      65  61  87 CALM      29.99S
DAYTON         FAIR      71  56  58 CALM      30.00S
WRIGHT-PAT AFB NOT AVBL
DAYTON GENERAL FAIR      71  54  54 CALM      29.99S
WILMINGTON     FAIR      68  61  78 CALM      29.99F
$$

OHZ036-037-039>041-045>050-054>059-063>069-073>076-082>088-310500-
  CENTRAL AND SOUTHEAST OHIO

CITY           SKY/WX    TMP DP  RH WIND       PRES   REMARKS
COLUMBUS       FAIR      68  59  73 CALM      29.98S
OSU AIRPORT    FAIR      69  55  60 CALM      29.98F
BOLTON FIELD   FAIR      64  60  87 SW3       29.99S
RICKENBACK AFB FAIR      67  59  74 CALM      29.98S
NEWARK         FAIR      63  58  83 CALM      29.99S
MARION         FAIR      67  57  70 CALM      29.99F
LANCASTER      FAIR      61  58  90 CALM      30.00S
ZANESVILLE     FAIR      66  60  81 CALM      29.99S
NEW PHILLY     FAIR      67  61  81 CALM      30.00S
$$



USA.gov is the U.S. government's official web portal to all federal, state and local government web resources and services.